TimeEDT,TemperatureF,Dew PointF,Humidity,Sea Level PressureIn,VisibilityMPH,Wind Direction,Wind SpeedMPH,Gust SpeedMPH,PrecipitationIn,Events,Conditions,WindDirDegrees,DateUTC
12:15 AM,77.0,77.0,100,29.94,5.0,Calm,Calm,-,N/A,,Scattered Clouds,0,2013-09-01 04:15:00
12:35 AM,77.0,77.0,100,29.94,4.0,Calm,Calm,-,N/A,,Scattered Clouds,0,2013-09-01 04:35:00
12:55 AM,75.2,75.2,100,29.95,2.5,Calm,Calm,-,N/A,,Clear,0,2013-09-01 04:55:00
1:15 AM,77.0,75.2,94,29.95,4.0,Calm,Calm,-,N/A,,Scattered Clouds,0,2013-09-01 05:15:00
1:35 AM,77.0,75.2,94,29.95,5.0,Calm,Calm,-,N/A,,Scattered Clouds,0,2013-09-01 05:35:00
1:55 AM,77.0,75.2,94,29.95,5.0,Calm,Calm,-,N/A,,Scattered Clouds,0,2013-09-01 05:55:00
2:15 AM,75.2,75.2,100,29.95,2.5,Calm,Calm,-,N/A,,Scattered Clouds,0,2013-09-01 06:15:00
2:35 AM,73.4,73.4,100,29.94,1.2,Calm,Calm,-,N/A,,Mist,0,2013-09-01 06:35:00
2:55 AM,75.2,73.4,94,29.93,5.0,Calm,Calm,-,N/A,,Clear,0,2013-09-01 06:55:00
3:15 AM,73.4,73.4,100,29.93,3.0,Calm,Calm,-,N/A,,Clear,0,2013-09-01 07:15:00
3:35 AM,73.4,73.4,100,29.93,1.5,Calm,Calm,-,N/A,,Mist,0,2013-09-01 07:35:00
3:55 AM,73.4,73.4,100,29.93,2.5,Calm,Calm,-,N/A,,Clear,0,2013-09-01 07:55:00
4:15 AM,73.4,73.4,100,29.92,2.5,Calm,Calm,-,N/A,,Clear,0,2013-09-01 08:15:00
4:35 AM,73.4,73.4,100,29.92,3.0,Calm,Calm,-,N/A,,Clear,0,2013-09-01 08:35:00
4:55 AM,73.4,71.6,94,29.93,3.0,Calm,Calm,-,N/A,,Clear,0,2013-09-01 08:55:00
5:15 AM,73.4,73.4,100,29.93,3.0,Calm,Calm,-,N/A,,Clear,0,2013-09-01 09:15:00
5:35 AM,73.4,73.4,100,29.94,0.8,Calm,Calm,-,N/A,,Mist,0,2013-09-01 09:35:00
5:55 AM,73.4,73.4,100,29.94,1.8,Calm,Calm,-,N/A,,Mist,0,2013-09-01 09:55:00
6:15 AM,73.4,73.4,100,29.95,2.0,Calm,Calm,-,N/A,,Clear,0,2013-09-01 10:15:00
6:35 AM,71.6,71.6,100,29.95,1.0,Calm,Calm,-,N/A,,Mist,0,2013-09-01 10:35:00
6:55 AM,71.6,71.6,100,29.95,2.5,Calm,Calm,-,N/A,,Clear,0,2013-09-01 10:55:00
7:15 AM,71.6,71.6,100,29.95,1.5,Calm,Calm,-,N/A,,Mist,0,2013-09-01 11:15:00
7:35 AM,71.6,71.6,100,29.96,0.2,Calm,Calm,-,N/A,Fog,Fog,0,2013-09-01 11:35:00
7:55 AM,73.4,73.4,100,29.96,1.2,Calm,Calm,-,N/A,,Scattered Clouds,0,2013-09-01 11:55:00
8:15 AM,73.4,73.4,100,29.96,2.5,Calm,Calm,-,N/A,,Clear,0,2013-09-01 12:15:00
8:35 AM,75.2,73.4,94,29.97,4.0,Calm,Calm,-,N/A,,Clear,0,2013-09-01 12:35:00
8:55 AM,77.0,75.2,94,29.97,5.0,Calm,Calm,-,N/A,,Clear,0,2013-09-01 12:55:00
9:15 AM,78.8,75.2,89,29.97,7.0,Calm,Calm,-,N/A,,Scattered Clouds,0,2013-09-01 13:15:00
9:35 AM,80.6,77.0,89,29.97,10.0,Calm,Calm,-,N/A,,Scattered Clouds,0,2013-09-01 13:35:00
9:55 AM,82.4,77.0,84,29.98,10.0,SW,5.8,-,N/A,,Scattered Clouds,230,2013-09-01 13:55:00
10:15 AM,82.4,77.0,84,29.98,10.0,WSW,5.8,-,N/A,,Scattered Clouds,240,2013-09-01 14:15:00
10:35 AM,82.4,77.0,84,29.98,10.0,SW,4.6,-,N/A,,Scattered Clouds,230,2013-09-01 14:35:00
10:55 AM,82.4,77.0,84,29.98,10.0,SW,4.6,-,N/A,,Mostly Cloudy,230,2013-09-01 14:55:00
11:15 AM,86.0,77.0,74,29.98,10.0,SSW,5.8,-,N/A,,Mostly Cloudy,200,2013-09-01 15:15:00
11:35 AM,86.0,75.2,70,29.98,10.0,SW,9.2,-,N/A,,Mostly Cloudy,230,2013-09-01 15:35:00
11:55 AM,86.0,75.2,70,29.98,10.0,WSW,5.8,-,N/A,,Mostly Cloudy,250,2013-09-01 15:55:00
12:15 PM,86.0,73.4,66,29.98,10.0,SW,6.9,-,N/A,,Scattered Clouds,220,2013-09-01 16:15:00
12:35 PM,87.8,73.4,62,29.97,10.0,SSW,8.1,-,N/A,,Scattered Clouds,200,2013-09-01 16:35:00
12:55 PM,87.8,73.4,62,29.96,10.0,SW,4.6,-,N/A,,Scattered Clouds,220,2013-09-01 16:55:00
1:15 PM,89.6,75.2,62,29.96,10.0,WSW,8.1,-,N/A,,Scattered Clouds,240,2013-09-01 17:15:00
1:35 PM,89.6,73.4,59,29.95,10.0,SSW,9.2,-,N/A,,Clear,210,2013-09-01 17:35:00
1:55 PM,89.6,73.4,59,29.94,10.0,South,6.9,-,N/A,,Scattered Clouds,180,2013-09-01 17:55:00
2:15 PM,89.6,73.4,59,29.94,10.0,SSW,3.5,-,N/A,,Scattered Clouds,210,2013-09-01 18:15:00
2:35 PM,87.8,73.4,62,29.93,10.0,SSW,6.9,-,N/A,,Scattered Clouds,210,2013-09-01 18:35:00
2:55 PM,89.6,71.6,55,29.93,10.0,SW,5.8,-,N/A,,Scattered Clouds,220,2013-09-01 18:55:00
3:15 PM,89.6,73.4,59,29.93,10.0,SW,5.8,-,N/A,,Clear,220,2013-09-01 19:15:00
3:35 PM,89.6,73.4,59,29.92,10.0,SW,5.8,-,N/A,,Clear,220,2013-09-01 19:35:00
3:55 PM,89.6,73.4,59,29.91,10.0,SSW,9.2,-,N/A,,Clear,210,2013-09-01 19:55:00
4:15 PM,89.6,73.4,59,29.91,10.0,SW,6.9,-,N/A,,Clear,220,2013-09-01 20:15:00
4:35 PM,89.6,73.4,59,29.90,10.0,West,5.8,-,N/A,,Clear,270,2013-09-01 20:35:00
4:55 PM,89.6,71.6,55,29.90,10.0,WSW,5.8,-,N/A,,Clear,250,2013-09-01 20:55:00
5:15 PM,89.6,71.6,55,29.89,10.0,West,4.6,-,N/A,,Clear,260,2013-09-01 21:15:00
5:35 PM,89.6,71.6,55,29.89,10.0,WSW,3.5,-,N/A,,Clear,250,2013-09-01 21:35:00
5:55 PM,89.6,71.6,55,29.88,10.0,SW,4.6,-,N/A,,Clear,220,2013-09-01 21:55:00
6:15 PM,89.6,73.4,59,29.88,10.0,WSW,6.9,-,N/A,,Scattered Clouds,240,2013-09-01 22:15:00
6:35 PM,87.8,73.4,62,29.89,10.0,SW,3.5,-,N/A,,Scattered Clouds,220,2013-09-01 22:35:00
6:55 PM,87.8,73.4,62,29.89,10.0,WSW,4.6,-,N/A,,Scattered Clouds,240,2013-09-01 22:55:00
7:15 PM,86.0,75.2,70,29.88,10.0,SW,3.5,-,N/A,,Clear,220,2013-09-01 23:15:00
7:35 PM,84.2,75.2,74,29.89,10.0,Calm,Calm,-,N/A,,Clear,0,2013-09-01 23:35:00
7:55 PM,82.4,75.2,79,29.89,10.0,Calm,Calm,-,N/A,,Clear,0,2013-09-01 23:55:00
8:15 PM,80.6,77.0,89,29.91,10.0,Calm,Calm,-,N/A,,Clear,0,2013-09-02 00:15:00
8:35 PM,78.8,77.0,94,29.91,7.0,Calm,Calm,-,N/A,,Clear,0,2013-09-02 00:35:00
8:55 PM,78.8,77.0,94,29.91,7.0,Calm,Calm,-,N/A,,Clear,0,2013-09-02 00:55:00
9:15 PM,80.6,75.2,84,29.92,10.0,NNW,4.6,-,N/A,,Scattered Clouds,330,2013-09-02 01:15:00
9:35 PM,78.8,75.2,89,29.94,10.0,NNW,3.5,-,N/A,,Scattered Clouds,330,2013-09-02 01:35:00
9:55 PM,78.8,75.2,89,29.95,10.0,Calm,Calm,-,N/A,,Scattered Clouds,0,2013-09-02 01:55:00
10:15 PM,77.0,75.2,94,29.95,10.0,Calm,Calm,-,N/A,,Clear,0,2013-09-02 02:15:00
10:35 PM,77.0,75.2,94,29.95,10.0,Calm,Calm,-,N/A,,Clear,0,2013-09-02 02:35:00
10:55 PM,77.0,75.2,94,29.94,10.0,Calm,Calm,-,N/A,,Clear,0,2013-09-02 02:55:00
11:15 PM,77.0,73.4,89,29.95,7.0,SSW,4.6,-,N/A,,Scattered Clouds,200,2013-09-02 03:15:00
11:35 PM,77.0,73.4,89,29.95,10.0,Calm,Calm,-,N/A,,Mostly Cloudy,0,2013-09-02 03:35:00
11:55 PM,75.2,73.4,94,29.95,7.0,Calm,Calm,-,N/A,,Scattered Clouds,0,2013-09-02 03:55:00